Chatham, MA

2:56 AM EDT on June 29, 2017 (GMT -0400)
Chatham Municipal

Weather History for KCQX - February, 2013

Change the Weather History Date:

Friday, February 22, 2013

  Actual Average Record
Temperature  
Mean Temperature 35 °F -  
Max Temperature 37 °F 38 °F 53 °F (1974)
Min Temperature 33 °F 25 °F 16 °F (2001)
Degree Days  
Heating Degree Days 30    
Moisture  
Dew Point 26 °F    
Average Humidity 66    
Maximum Humidity 78    
Minimum Humidity 57    
Precipitation  
Precipitation 0.00 in - - ()
Sea Level Pressure  
Sea Level Pressure 30.29 in    
Wind  
Wind Speed 7 mph (NNE)    
Max Wind Speed 13 mph    
Max Gust Speed 23 mph    
Visibility 10 miles    
Events Rain , Snow    
Averages and records for this station are not official NWS values.
T = Trace of Precipitation, MM = Missing Value Source: NWS Daily Summary

Daily Weather History Graph

Daily Weather History Graph

Search for Another Location

Airport or City:

Trip Planner

Search our weather history database for the weather conditions in past years. The results will help you decide how hot, cold, wet, or windy it might be!

Date:

Astronomy

Feb. 22, 2013 Rise Set
Actual Time 6:25 AM EST 5:22 PM EST
Civil Twilight 5:57 AM EST 5:50 PM EST
Nautical Twilight 5:24 AM EST 6:22 PM EST
Astronomical Twilight 4:52 AM EST 6:54 PM EST
Moon 2:28 PM EST (2/22) 4:09 AM EST (2/22)
Length of Visible Light 11h 53m
Length of Day
10h 57m
Waxing Gibbous, 90% of the Moon is Illuminated
Feb 22
Waxing Gibbous
Feb 25
Full
Mar 4
Last Quarter
Mar 11
New
Mar 19
First Quarter

Hourly Weather History & Observations

Time (EST) Temp. Windchill Dew Point Humidity Pressure Visibility Wind Dir Wind Speed Gust Speed Precip Events Conditions
12:52 AM 34.0 °F 27.2 °F 26.1 °F 73% 30.11 in 10.0 mi NW 8.1 mph - N/A   Overcast
1:52 AM 36.0 °F 29.6 °F 27.0 °F 70% 30.15 in 10.0 mi NNW 8.1 mph - 0.00 in   Overcast
2:52 AM 33.1 °F 25.5 °F 27.0 °F 78% 30.16 in 10.0 mi NW 9.2 mph 23.0 mph 0.00 in Rain Light Rain
3:07 AM 33.8 °F 27.0 °F 26.6 °F 75% 30.15 in 10.0 mi NNW 8.1 mph - 0.00 in   Overcast
3:22 AM 33.8 °F 27.7 °F 26.6 °F 75% 30.16 in 5.0 mi Variable 6.9 mph - 0.00 in Snow Light Snow
3:52 AM 35.1 °F 30.1 °F 28.9 °F 78% 30.19 in 7.0 mi NNW 5.8 mph - 0.00 in Snow Light Snow
4:09 AM 35.6 °F 32.8 °F 28.4 °F 75% 30.19 in 10.0 mi Variable 3.5 mph - 0.00 in   Overcast
4:52 AM 37.0 °F 28.9 °F 26.1 °F 65% 30.21 in 10.0 mi NNE 12.7 mph 21.9 mph 0.00 in   Overcast
5:52 AM 37.0 °F 31.0 °F 25.0 °F 62% 30.24 in 10.0 mi North 8.1 mph 20.7 mph N/A   Overcast
6:09 AM 35.6 °F 30.7 °F 26.6 °F 70% 30.25 in 9.0 mi Variable 5.8 mph - 0.00 in Snow Light Snow
6:28 AM 35.6 °F 32.8 °F 26.6 °F 70% 30.26 in 10.0 mi Variable 3.5 mph - 0.00 in   Overcast
7:01 AM 35.6 °F 29.2 °F 26.6 °F 70% 30.28 in 10.0 mi North 8.1 mph - N/A   Overcast
7:29 AM 35.6 °F 29.9 °F 24.8 °F 65% 30.30 in 10.0 mi Variable 6.9 mph - N/A   Overcast
7:52 AM 36.0 °F 30.3 °F 25.0 °F 64% 30.32 in 10.0 mi NNE 6.9 mph 17.3 mph N/A   Overcast
8:41 AM 35.6 °F 29.2 °F 26.6 °F 70% 30.32 in 10.0 mi North 8.1 mph - N/A   Overcast
8:52 AM 37.0 °F 30.4 °F 25.0 °F 62% 30.33 in 10.0 mi NNE 9.2 mph - N/A   Overcast
9:52 AM 37.0 °F 29.8 °F 24.1 °F 59% 30.32 in 10.0 mi NNE 10.4 mph 16.1 mph N/A   Overcast
10:19 AM 37.4 °F 30.8 °F 24.8 °F 60% 30.32 in 10.0 mi NNE 9.2 mph 18.4 mph N/A   Overcast
10:52 AM 37.0 °F 29.3 °F 25.0 °F 62% 30.33 in 10.0 mi NNE 11.5 mph 17.3 mph N/A   Overcast
11:52 AM 37.0 °F 31.0 °F 25.0 °F 62% 30.33 in 10.0 mi NNE 8.1 mph 17.3 mph N/A   Overcast
12:35 PM 37.4 °F 30.8 °F 24.8 °F 60% 30.31 in 10.0 mi NNE 9.2 mph - N/A   Overcast
12:52 PM 37.0 °F 31.6 °F 23.0 °F 57% 30.33 in 10.0 mi Variable 6.9 mph - N/A   Overcast
1:52 PM 37.0 °F 31.6 °F 24.1 °F 59% 30.34 in 10.0 mi NNE 6.9 mph - N/A   Overcast
2:52 PM 37.0 °F 31.6 °F 24.1 °F 59% 30.34 in 10.0 mi NNE 6.9 mph - N/A   Overcast
3:27 PM 37.4 °F 32.8 °F 24.8 °F 60% 30.34 in 10.0 mi Variable 5.8 mph - N/A   Overcast
3:52 PM 37.0 °F 31.6 °F 25.0 °F 62% 30.34 in 10.0 mi NNE 6.9 mph - N/A   Overcast
4:09 PM 35.6 °F 30.7 °F 24.8 °F 65% 30.34 in 10.0 mi NNE 5.8 mph - N/A   Overcast
4:48 PM 35.6 °F 30.7 °F 24.8 °F 65% 30.34 in 10.0 mi Variable 5.8 mph - N/A   Overcast
4:52 PM 36.0 °F 33.3 °F 24.1 °F 62% 30.35 in 10.0 mi Variable 3.5 mph - N/A   Overcast
5:52 PM 36.0 °F 29.0 °F 23.0 °F 59% 30.34 in 10.0 mi NE 9.2 mph - N/A   Overcast
6:28 PM 35.6 °F - 24.8 °F 65% 30.34 in 10.0 mi Calm Calm - N/A   Overcast
6:52 PM 35.1 °F - 24.1 °F 64% 30.36 in 10.0 mi Calm Calm - N/A   Overcast
7:52 PM 36.0 °F - 26.1 °F 67% 30.36 in 10.0 mi Calm Calm - N/A   Overcast
8:52 PM 36.0 °F 32.1 °F 26.1 °F 67% 30.35 in 10.0 mi NE 4.6 mph - N/A   Overcast
9:52 PM 36.0 °F 32.1 °F 26.1 °F 67% 30.36 in 10.0 mi ENE 4.6 mph - N/A   Overcast
10:52 PM 34.0 °F - 26.1 °F 73% 30.35 in 10.0 mi Calm Calm - N/A   Overcast
11:52 PM 35.1 °F - 28.0 °F 76% 30.36 in 10.0 mi Calm Calm - N/A   Overcast